FREGAT DEB, 45999

Orbit data source: Space-Track

FREGAT DEB, 45999 is space debris in LEO originally from a launch on Mon, 18 Jul 2011 UTC launched from the Tyuratam Missile And Space Complex (TTMTR). Debris objects in space refer to the collection of defunct objects orbiting the Earth. Examples of debris include non-operational satellites, rocket bodies, and fragments generated from explosions, collisions, or faulty payload assembly.

Loading next visibility...
Identifier
45999, 2011-037HA
Orbit
LEO
Country
Flag of CISCIS
Related business
Manufacturer
Lavochkin
Mission
Spacecraft
Bus & Motor
Unknown
Mass
Unknown
Launch date (UTC)
2011-07-18 (14 years ago)
Launch vehicle
Unknown
Launch site
Tyuratam Missile And Space Complex (TTMTR)
Object type
Payload
Rocket body
Debris
Shape & HBR
Unknown
Radar Cross Section
Small (<0.1 m²)

Expand to show TLE details & history
Last TLE update: 1 week ago

TLE from 1 week ago
0 FREGAT DEB
1 45999U 11037HA  25253.80029149  .00000417  00000-0  12189-2 0  9993
2 45999  51.4572 169.9359 2139156  19.7751 347.4553 10.06229126188031
Epoch: 2025-09-10T19:12Z
TLE epoch observation values (Epoch: 2025-09-10T19:12:25.184Z)
Latitude
-0.00001°
Longitude
-108.24055°
Altitude
820.805 km
Speed
8.173 km/s
True Right ascension
11h 19m 44s
True Declination
0° 00' 00"
Sunlit
Object was in daylight at epoch
Visualization orbit readout
Latitude
Unknown
Longitude
Unknown
Altitude
Unknown
Speed
Unknown
Apparent Right ascension
Unknown
Apparent Declination
Unknown
Sunlit
N/A
Visualization observer readout
Local Sidereal Time
14:49:48
Azimuth
Unknown
Elevation
Unknown
Doppler factor
Unknown
Orbital elements
Apogee altitude
4,624.073 km
Perigee altitude
746.465 km
Semi-major axis
9,063.406 km
Eccentricity
0.21392
Inclination
51.4572°
RAAN
169.9359°
Arg. of periapsis
19.7751°
True anomaly
340.30587°
Mean anomaly
347.4553°
Eccentric anomaly
344.09689°
Mean motion
2.51539 °/min
Orbital period
143.12 mins
BSTAR
0.0012189
Loading maneuver chart data...
Computing Atmospheric mass density...
Loading historical data...
Loading historical data...
Loading historical data...
Loading historical data...
Loading historical data...
Loading historical data...
Loading historical data...

Documentation

Showing up to 5 results
|